Weather History for Platteville, WI

Change the Weather History Date:

Monday, February 18, 2013

  Actual Average (KDBQ) Record (KDBQ)
Temperature  
Mean Temperature 30 °F 25 °F  
Max Temperature 44 °F 32 °F 61 °F (1981)
Min Temperature 15 °F 17 °F -18 °F (2006)
Degree Days  
Heating Degree Days 34 40  
Month to date heating degree days 772  
Since 1 July heating degree days 5009  
Cooling Degree Days 0 0  
Month to date cooling degree days 0  
Year to date cooling degree days 0  
Moisture  
Dew Point 26 °F    
Average Humidity 78    
Maximum Humidity 93    
Minimum Humidity 66    
Precipitation  
Precipitation 0.00 in 0.05 in 0.78 in (1908)
Month to date precipitation 0.85  
Year to date precipitation 2.02  
Snow  
Snow 0.00 in 0.30 in - ()
Month to date snowfall 6.2  
Since 1 July snowfall 30.8  
Snow Depth -    
Sea Level Pressure  
Sea Level Pressure 29.61 in    
Wind  
Wind Speed 14 mph (SSW)    
Max Wind Speed 26 mph    
Max Gust Speed 33 mph    
Visibility 9 miles    
Events      
T = Trace of Precipitation, MM = Missing Value Source: NWS Daily Summary

Daily Weather History Graph

Daily Weather History Graph

Search for Another Location

Airport:

Trip Planner

Search our weather history database for the weather conditions in past years. The results will help you decide how hot, cold, wet, or windy it might be!

Date:

Astronomy

Feb. 18, 2013 Rise Set
Actual Time 6:54 AM CST 5:37 PM CST
Civil Twilight 6:25 AM CST 6:06 PM CST
Nautical Twilight 5:52 AM CST 6:39 PM CST
Astronomical Twilight 5:19 AM CST 7:12 PM CST
Moon 11:19 AM CST 1:37 AM CST
Length of Visible Light 11h 41m
Length of Day
10h 43m
First Quarter, 58% of the Moon is Illuminated
Feb 18
First Quarter
Feb 25
Full
Mar 4
Last Quarter
Mar 11
New
Mar 19
First Quarter

Hourly Weather History & Observations

Time (CST) Temp. Windchill Dew Point Humidity Pressure Visibility Wind Dir Wind Speed Gust Speed Precip Events Conditions
12:15 AM 30.2 °F 18.5 °F 21.2 °F 69% 29.82 in 10.0 mi SE 17.3 mph 21.9 mph N/A   Clear
12:55 AM 30.2 °F 19.3 °F 21.2 °F 69% 29.80 in 10.0 mi SE 15.0 mph - N/A   Clear
1:15 AM 30.2 °F 19.3 °F 23.0 °F 75% 29.78 in 10.0 mi SE 15.0 mph - N/A   Clear
1:35 AM 30.2 °F 18.9 °F 23.0 °F 75% 29.77 in 10.0 mi SE 16.1 mph - N/A   Clear
1:55 AM 30.2 °F 21.3 °F 23.0 °F 75% 29.77 in 10.0 mi SE 10.4 mph - N/A   Clear
2:15 AM 32.0 °F 21.2 °F 23.0 °F 69% 29.75 in 10.0 mi SE 16.1 mph 19.6 mph N/A   Clear
2:35 AM 32.0 °F 22.5 °F 24.8 °F 75% 29.74 in 10.0 mi SE 12.7 mph - N/A   Clear
2:55 AM 32.0 °F 21.6 °F 24.8 °F 75% 29.73 in 10.0 mi SSE 15.0 mph - N/A   Clear
3:15 AM 32.0 °F 21.2 °F 24.8 °F 75% 29.72 in 10.0 mi SSE 16.1 mph 20.7 mph N/A   Clear
3:35 AM 32.0 °F 21.6 °F 24.8 °F 75% 29.70 in 10.0 mi SSE 15.0 mph - N/A   Clear
3:55 AM 32.0 °F 22.1 °F 24.8 °F 75% 29.69 in 10.0 mi SSE 13.8 mph - N/A   Clear
4:15 AM 32.0 °F 22.5 °F 24.8 °F 75% 29.68 in 10.0 mi SSE 12.7 mph - N/A   Clear
4:35 AM 32.0 °F 22.1 °F 24.8 °F 75% 29.67 in 10.0 mi SSE 13.8 mph 20.7 mph N/A   Clear
4:55 AM 32.0 °F 21.6 °F 24.8 °F 75% 29.67 in 10.0 mi SSE 15.0 mph - N/A   Clear
5:15 AM 32.0 °F 23.6 °F 24.8 °F 75% 29.66 in 10.0 mi SE 10.4 mph - N/A   Clear
5:35 AM 32.0 °F 21.2 °F 24.8 °F 75% 29.65 in 10.0 mi SSE 16.1 mph - N/A   Clear
5:55 AM 32.0 °F 23.0 °F 26.6 °F 80% 29.65 in 10.0 mi SSE 11.5 mph 17.3 mph N/A   Clear
6:15 AM 32.0 °F 22.5 °F 26.6 °F 80% 29.65 in 10.0 mi SSE 12.7 mph - N/A   Clear
6:35 AM 32.0 °F 22.1 °F 26.6 °F 80% 29.64 in 10.0 mi SSE 13.8 mph - N/A   Clear
6:55 AM 32.0 °F 22.5 °F 26.6 °F 80% 29.63 in 10.0 mi SSE 12.7 mph - N/A   Clear
7:15 AM 32.0 °F 24.2 °F 26.6 °F 80% 29.63 in 10.0 mi SSE 9.2 mph - N/A   Clear
7:35 AM 32.0 °F 23.6 °F 26.6 °F 80% 29.63 in 10.0 mi SSE 10.4 mph - N/A   Clear
7:55 AM 32.0 °F 23.0 °F 26.6 °F 80% 29.62 in 10.0 mi SSE 11.5 mph - N/A   Clear
8:15 AM 32.0 °F 23.6 °F 28.4 °F 87% 29.62 in 10.0 mi SSE 10.4 mph - N/A   Clear
8:35 AM 33.8 °F 25.3 °F 28.4 °F 81% 29.61 in 10.0 mi SSE 11.5 mph - N/A   Clear
8:55 AM 33.8 °F 24.8 °F 28.4 °F 81% 29.61 in 10.0 mi SSE 12.7 mph - N/A   Clear
9:15 AM 33.8 °F 24.8 °F 30.2 °F 87% 29.60 in 10.0 mi SSE 12.7 mph - N/A   Clear
9:35 AM 35.6 °F 27.1 °F 30.2 °F 81% 29.60 in 10.0 mi South 12.7 mph - N/A   Clear
9:55 AM 35.6 °F 26.2 °F 30.2 °F 81% 29.59 in 10.0 mi South 15.0 mph - N/A   Clear
10:15 AM 37.4 °F 29.3 °F 30.2 °F 75% 29.59 in 10.0 mi South 12.7 mph - N/A   Clear
10:35 AM 37.4 °F 30.3 °F 32.0 °F 81% 29.58 in 10.0 mi South 10.4 mph - N/A   Clear
10:55 AM 37.4 °F 30.8 °F 32.0 °F 81% 29.57 in 10.0 mi South 9.2 mph - N/A   Clear
11:15 AM 39.2 °F 33.0 °F 32.0 °F 75% 29.57 in 10.0 mi South 9.2 mph - N/A   Clear
11:35 AM 41.0 °F 35.8 °F 32.0 °F 70% 29.56 in 10.0 mi South 8.1 mph - N/A   Clear
11:55 AM 42.8 °F 38.0 °F 32.0 °F 66% 29.55 in 10.0 mi South 8.1 mph - N/A   Clear
12:15 PM 42.8 °F 37.0 °F 33.8 °F 70% 29.54 in 10.0 mi South 10.4 mph - N/A   Clear
12:35 PM 44.6 °F 39.2 °F 33.8 °F 66% 29.52 in 10.0 mi SSW 10.4 mph - N/A   Scattered Clouds
12:55 PM 44.6 °F 38.4 °F 33.8 °F 66% 29.52 in 10.0 mi SSW 12.7 mph - N/A   Scattered Clouds
1:15 PM 44.6 °F 38.1 °F 33.8 °F 66% 29.52 in 10.0 mi SSW 13.8 mph - N/A   Mostly Cloudy
1:35 PM 42.8 °F 37.5 °F 33.8 °F 70% 29.52 in 10.0 mi SW 9.2 mph - N/A   Overcast
2:15 PM 42.8 °F 37.5 °F 33.8 °F 70% 29.50 in 10.0 mi SSW 9.2 mph - N/A   Overcast
2:35 PM 42.8 °F 36.6 °F 32.0 °F 66% 29.51 in 10.0 mi SW 11.5 mph - N/A   Overcast
2:55 PM 41.0 °F 32.5 °F 32.0 °F 70% 29.50 in 10.0 mi West 17.3 mph - N/A   Overcast
3:15 PM 39.2 °F 32.5 °F 33.8 °F 81% 29.51 in 10.0 mi West 10.4 mph - N/A   Overcast
3:35 PM 39.2 °F 32.5 °F 32.0 °F 75% 29.51 in 10.0 mi WNW 10.4 mph - N/A   Overcast
3:55 PM 37.4 °F 29.3 °F 32.0 °F 81% 29.51 in 10.0 mi West 12.7 mph 19.6 mph N/A   Overcast
4:15 PM 35.6 °F 27.5 °F 32.0 °F 87% 29.52 in 10.0 mi WNW 11.5 mph - N/A   Overcast
4:35 PM 35.6 °F 27.1 °F 32.0 °F 87% 29.52 in 4.0 mi WNW 12.7 mph - N/A   Overcast
4:55 PM 33.8 °F 26.4 °F 32.0 °F 93% 29.52 in 0.8 mi WNW 9.2 mph - N/A   Overcast
5:15 PM 33.8 °F 25.8 °F 32.0 °F 93% 29.52 in 3.0 mi WNW 10.4 mph - N/A   Overcast
5:35 PM 33.8 °F 24.3 °F 32.0 °F 93% 29.53 in 2.0 mi West 13.8 mph 18.4 mph N/A   Overcast
5:55 PM 32.0 °F 21.6 °F 30.2 °F 93% 29.53 in 2.5 mi West 15.0 mph 20.7 mph N/A   Overcast
6:15 PM 32.0 °F 22.1 °F 30.2 °F 93% 29.54 in 4.0 mi WNW 13.8 mph - N/A   Overcast
6:55 PM 30.2 °F 18.1 °F 26.6 °F 86% 29.55 in 5.0 mi WNW 18.4 mph 23.0 mph N/A   Overcast
7:15 PM 30.2 °F 19.3 °F 26.6 °F 86% 29.55 in 10.0 mi WNW 15.0 mph 21.9 mph N/A   Overcast
7:35 PM 28.4 °F 15.8 °F 24.8 °F 86% 29.56 in 10.0 mi West 18.4 mph 23.0 mph N/A   Overcast
8:15 PM 26.6 °F 12.0 °F 21.2 °F 80% 29.57 in 10.0 mi West 23.0 mph 29.9 mph N/A   Overcast
8:35 PM 24.8 °F 9.6 °F 19.4 °F 80% 29.57 in 10.0 mi West 23.0 mph 28.8 mph N/A   Overcast
8:55 PM 23.0 °F 8.3 °F 17.6 °F 80% 29.59 in 10.0 mi West 19.6 mph 28.8 mph N/A   Overcast
9:15 PM 21.2 °F 6.8 °F 17.6 °F 86% 29.60 in 10.0 mi West 17.3 mph 27.6 mph N/A   Overcast
9:35 PM 21.2 °F 4.9 °F 15.8 °F 80% 29.61 in 10.0 mi West 23.0 mph 31.1 mph N/A   Overcast
9:55 PM 21.2 °F 4.2 °F 14.0 °F 74% 29.63 in 10.0 mi West 25.3 mph 32.2 mph N/A   Overcast
10:15 PM 19.4 °F 4.1 °F 14.0 °F 80% 29.63 in 10.0 mi West 18.4 mph 27.6 mph N/A   Overcast
10:35 PM 19.4 °F 2.1 °F 14.0 °F 80% 29.64 in 10.0 mi West 24.2 mph 33.4 mph N/A   Overcast
10:55 PM 17.6 °F 0.9 °F 12.2 °F 79% 29.66 in 10.0 mi West 20.7 mph 32.2 mph N/A   Overcast
11:15 PM 17.6 °F -1.0 °F 12.2 °F 79% 29.67 in 10.0 mi West 26.5 mph 33.4 mph N/A   Overcast
11:35 PM 17.6 °F 0.9 °F 12.2 °F 79% 29.67 in 10.0 mi West 20.7 mph 31.1 mph N/A   Overcast
11:55 PM 15.8 °F -3.4 °F 10.4 °F 79% 29.67 in 10.0 mi West 26.5 mph 32.2 mph N/A   Overcast